CW9206 Weather Reports


time (UTC)temp
C
wind
direction
speed
KPH
gust
KPH
rain 1hr
cm
rain 24hr
cm
rain mn
cm
humidity
%
barometer
mb
20260506190732 24 248 4.8 11.3 0.00 0.00 0.00 39 1016.7
20260506190232 23 288 6.4 8.0 0.00 0.00 0.00 39 1016.7
20260506185732 23 145 0.0 6.4 0.00 0.00 0.00 39 1016.8
20260506184734 23 331 0.0 11.3 0.00 0.00 0.00 39 1017.0
20260506183732 23 221 3.2 11.3 0.00 0.00 0.00 38 1017.1
20260506183232 23 186 0.0 11.3 0.00 0.00 0.00 37 1017.2
20260506182232 22 288 0.0 9.7 0.00 0.00 0.00 37 1017.3
20260506181732 22 182 3.2 8.0 0.00 0.00 0.00 37 1017.4
20260506181232 22 178 3.2 9.7 0.00 0.00 0.00 36 1017.4
20260506180732 21 264 1.6 9.7 0.00 0.00 0.00 36 1017.4
20260506180231 21 257 1.6 9.7 0.00 0.00 0.00 35 1017.5
20260506175732 21 270 0.0 16.1 0.00 0.00 0.00 35 1017.6
20260506175232 21 300 0.0 16.1 0.00 0.00 0.00 35 1017.5
20260506174232 20 171 3.2 8.0 0.00 0.00 0.00 34 1017.4
20260506173732 20 172 3.2 6.4 0.00 0.00 0.00 34 1017.5
20260506173231 20 171 0.0 6.4 0.00 0.00 0.00 34 1017.5
20260506172731 19 165 0.0 8.0 0.00 0.00 0.00 34 1017.4
20260506172231 19 182 3.2 8.0 0.00 0.00 0.00 33 1017.5
20260506171231 18 180 1.6 8.0 0.00 0.00 0.00 33 1017.5
20260506170731 18 179 0.0 8.0 0.00 0.00 0.00 32 1017.5
20260506165731 18 198 0.0 8.0 0.00 0.00 0.00 32 1017.5
20260506164730 17 193 0.0 8.0 0.00 0.00 0.00 31 1017.4
20260506164230 17 192 1.6 8.0 0.00 0.00 0.00 31 1017.4
20260506163731 17 191 0.0 8.0 0.00 0.00 0.00 31 1017.4
20260506163230 16 161 1.6 6.4 0.00 0.00 0.00 30 1017.3
20260506162730 16 160 4.8 6.4 0.00 0.00 0.00 30 1017.4
20260506162231 16 161 0.0 6.4 0.00 0.00 0.00 30 1017.4
20260506161730 16 106 3.2 6.4 0.00 0.00 0.00 30 1017.4
20260506161230 16 338 0.0 3.2 0.00 0.00 0.00 29 1017.4
20260506160730 16 338 0.0 3.2 0.00 0.00 0.00 29 1017.5
20260506160230 16 338 0.0 4.8 0.00 0.00 0.00 28 1017.5
20260506155730 15 338 1.6 6.4 0.00 0.00 0.00 28 1017.5
20260506155230 15 338 0.0 9.7 0.00 0.00 0.00 27 1017.5
20260506154730 15 339 0.0 9.7 0.00 0.00 0.00 27 1017.5
20260506154230 15 339 4.8 6.4 0.00 0.00 0.00 26 1017.4
20260506152729 15 338 0.0 6.4 0.00 0.00 0.00 23 1017.5
20260506152230 15 339 0.0 6.4 0.00 0.00 0.00 22 1017.5
20260506151229 14 339 0.0 1.6 0.00 0.00 0.00 20 1017.5
20260506150730 14 339 0.0 1.6 0.00 0.00 0.00 20 1017.5
20260506150229 13 339 0.0 0.0 0.00 0.00 0.00 18 1017.4
20260506145729 13 338 0.0 0.0 0.00 0.00 0.00 18 1017.6
20260506145229 13 338 0.0 0.0 0.00 0.00 0.00 18 1017.5
20260506144729 13 339 0.0 4.8 0.00 0.00 0.00 18 1017.5
20260506144229 13 339 0.0 4.8 0.00 0.00 0.00 18 1017.5
20260506143729 13 339 0.0 1.6 0.00 0.00 0.00 17 1017.4
20260506143229 13 339 0.0 0.0 0.00 0.00 0.00 17 1017.4
20260506142229 12 338 0.0 0.0 0.00 0.00 0.00 17 1017.4
20260506141729 12 340 0.0 0.0 0.00 0.00 0.00 17 1017.4
20260506140728 12 334 0.0 0.0 0.00 0.00 0.00 16 1017.4
20260506140229 12 303 0.0 0.0 0.00 0.00 0.00 16 1017.4
20260506135728 12 303 0.0 0.0 0.00 0.00 0.00 16 1017.4
20260506135229 12 304 0.0 0.0 0.00 0.00 0.00 16 1017.3
20260506134729 12 304 0.0 0.0 0.00 0.00 0.00 16 1017.4
20260506134228 12 304 0.0 0.0 0.00 0.00 0.00 16 1017.3
20260506133729 12 304 0.0 0.0 0.00 0.00 0.00 16 1017.4
20260506133228 12 304 0.0 0.0 0.00 0.00 0.00 16 1017.3
20260506132728 12 304 0.0 0.0 0.00 0.00 0.00 16 1017.2
20260506132228 12 304 0.0 0.0 0.00 0.00 0.00 16 1017.1
20260506131728 12 304 0.0 0.0 0.00 0.00 0.00 16 1017.1
20260506130228 12 304 0.0 0.0 0.00 0.00 0.00 16 1016.9
20260506125228 12 304 0.0 0.0 0.00 0.00 0.00 16 1016.9
20260506124728 12 304 0.0 0.0 0.00 0.00 0.00 16 1017.0
20260506124228 12 304 0.0 0.0 0.00 0.00 0.00 16 1017.0
20260506123727 12 304 0.0 0.0 0.00 0.00 0.00 16 1016.9
20260506123227 12 304 0.0 0.0 0.00 0.00 0.00 15 1016.9
20260506122727 12 295 0.0 0.0 0.00 0.00 0.00 15 1017.0
20260506121728 12 295 0.0 0.0 0.00 0.00 0.00 15 1017.0
20260506121226 12 295 0.0 0.0 0.00 0.00 0.00 15 1016.9
20260506120727 12 295 0.0 0.0 0.00 0.00 0.00 15 1016.9
20260506120227 12 295 0.0 0.0 0.00 0.00 0.00 15 1016.9
20260506115227 12 295 0.0 0.0 0.00 0.00 0.00 15 1017.2
20260506114726 12 295 0.0 0.0 0.00 0.00 0.00 15 1017.2
20260506114227 12 295 0.0 0.0 0.00 0.00 0.00 15 1017.3
20260506113726 12 295 0.0 0.0 0.00 0.00 0.00 15 1017.3
20260506112226 12 295 0.0 0.0 0.00 0.00 0.00 15 1017.2
20260506111726 12 295 0.0 0.0 0.00 0.00 0.00 15 1017.2
20260506111227 12 295 0.0 0.0 0.00 0.00 0.00 15 1017.1
20260506110726 12 295 0.0 0.0 0.00 0.00 0.00 15 1017.1
20260506110226 12 295 0.0 0.0 0.00 0.00 0.00 15 1017.2
20260506105726 12 295 0.0 0.0 0.00 0.00 0.00 15 1017.2
20260506104726 12 295 0.0 0.0 0.00 0.00 0.00 15 1017.1
20260506103725 12 295 0.0 0.0 0.00 0.00 0.00 15 1017.1
20260506103225 12 295 0.0 0.0 0.00 0.00 0.00 15 1017.1
20260506102726 12 295 0.0 0.0 0.00 0.00 0.00 15 1017.1
20260506101725 12 295 0.0 0.0 0.00 0.00 0.00 15 1017.0
20260506101225 12 295 0.0 0.0 0.00 0.00 0.00 15 1017.1
20260506100725 12 295 0.0 0.0 0.00 0.00 0.00 15 1017.1
20260506100225 12 295 0.0 0.0 0.00 0.00 0.00 15 1017.0
20260506095725 12 295 0.0 0.0 0.00 0.00 0.00 15 1016.9
20260506094225 12 295 3.2 3.2 0.00 0.00 0.00 15 1017.0
20260506093224 12 295 0.0 0.0 0.00 0.00 0.00 15 1017.0
20260506092725 12 295 0.0 3.2 0.00 0.00 0.00 15 1017.0
20260506092225 12 295 0.0 3.2 0.00 0.00 0.00 15 1017.0
20260506091724 12 295 0.0 0.0 0.00 0.00 0.00 15 1017.1
20260506091225 12 295 0.0 0.0 0.00 0.00 0.00 14 1017.1
20260506090724 12 295 0.0 0.0 0.00 0.00 0.00 14 1017.1
20260506085724 12 295 0.0 1.6 0.00 0.00 0.00 14 1017.2
20260506085224 12 295 0.0 8.0 0.00 0.00 0.00 14 1017.3
20260506084724 12 295 0.0 8.0 0.00 0.00 0.00 14 1017.3
20260506084224 12 294 0.0 6.4 0.00 0.00 0.00 14 1017.4
20260506083724 12 294 0.0 0.0 0.00 0.00 0.00 14 1017.3
20260506083223 12 294 0.0 0.0 0.00 0.00 0.00 14 1017.4
20260506082724 12 294 0.0 0.0 0.00 0.00 0.00 14 1017.4
20260506082224 12 294 0.0 0.0 0.00 0.00 0.00 14 1017.5
20260506081723 12 294 0.0 0.0 0.00 0.00 0.00 15 1017.3
20260506080723 12 294 0.0 0.0 0.00 0.00 0.00 15 1017.4
20260506080223 11 294 0.0 0.0 0.00 0.00 0.00 15 1017.3
20260506073223 11 294 0.0 0.0 0.00 0.00 0.00 17 1017.3
20260506072723 11 294 0.0 0.0 0.00 0.00 0.00 18 1017.3
20260506072223 11 294 0.0 0.0 0.00 0.00 0.00 18 1017.3
20260506071723 11 294 0.0 0.0 0.00 0.00 0.00 18 1017.2
20260506070253 11 294 0.0 0.0 0.00 0.00 0.00 19 1017.1
20260506062252 11 294 0.0 0.0 0.00 0.00 0.00 19 1016.9
20260506061752 11 294 0.0 0.0 0.00 0.00 0.00 19 1016.8
20260506061252 12 294 0.0 0.0 0.00 0.00 0.00 19 1016.8
20260506060752 12 294 0.0 0.0 0.00 0.00 0.00 19 1016.8
20260506060251 12 294 0.0 0.0 0.00 0.00 0.00 20 1016.8
20260506051251 12 294 0.0 0.0 0.00 0.00 0.00 25 1016.6
20260506050751 12 294 0.0 0.0 0.00 0.00 0.00 25 1016.6
20260506050251 12 294 0.0 0.0 0.00 0.00 0.00 26 1016.5
20260506044751 12 294 0.0 0.0 0.00 0.00 0.00 28 1016.2
20260506044250 13 294 0.0 4.8 0.00 0.00 0.00 29 1016.2
20260506043751 13 294 0.0 4.8 0.00 0.00 0.00 30 1016.0
20260506043251 13 294 0.0 3.2 0.00 0.00 0.00 31 1016.0
20260506042750 13 294 0.0 1.6 0.00 0.00 0.00 31 1016.0
20260506042250 13 294 0.0 1.6 0.00 0.00 0.00 32 1016.0
20260506041750 13 294 0.0 0.0 0.00 0.00 0.00 33 1015.9
20260506041250 13 294 0.0 6.4 0.00 0.00 0.00 34 1015.8
20260506040750 13 294 0.0 6.4 0.00 0.00 0.00 35 1015.7
20260506040250 13 294 0.0 4.8 0.00 0.00 0.00 36 1015.6
20260506035750 14 294 0.0 4.8 0.00 0.00 0.00 37 1015.4
20260506034750 14 294 0.0 6.4 0.00 0.00 0.00 38 1015.3
20260506034250 15 294 4.8 6.4 0.00 0.00 0.00 39 1015.2
20260506033749 15 294 1.6 6.4 0.00 0.00 0.00 39 1015.1
20260506033249 15 294 0.0 1.6 0.00 0.00 0.00 40 1015.1
20260506032749 15 294 0.0 3.2 0.00 0.00 0.00 41 1015.0
20260506032249 15 294 1.6 6.4 0.00 0.00 0.00 41 1014.8
20260506031249 15 296 0.0 6.4 0.00 0.00 0.00 43 1014.7
20260506030749 15 296 0.0 6.4 0.00 0.00 0.00 43 1014.7
20260506030249 16 298 0.0 8.0 0.00 0.00 0.00 44 1014.6
20260506025749 16 298 0.0 8.0 0.00 0.00 0.00 44 1014.5
20260506025249 16 304 0.0 9.7 0.00 0.00 0.00 45 1014.3
20260506024749 16 302 0.0 9.7 0.00 0.00 0.00 46 1014.3
20260506023748 16 303 4.8 12.9 0.00 0.00 0.00 47 1014.0
20260506023249 16 305 1.6 12.9 0.00 0.00 0.00 48 1013.8
20260506022748 16 318 0.0 8.0 0.00 0.00 0.00 49 1013.9
20260506022248 17 271 1.6 6.4 0.00 0.00 0.00 50 1013.9
20260506021748 17 273 1.6 14.5 0.00 0.00 0.00 50 1013.9
20260506020749 17 294 1.6 14.5 0.00 0.00 0.00 51 1013.9
20260506015248 18 300 8.0 19.3 0.00 0.00 0.00 51 1013.7
20260506014748 18 302 4.8 22.5 0.00 0.00 0.00 50 1013.4
20260506012748 20 300 0.0 11.3 0.00 0.00 0.00 49 1013.3
20260506012248 20 297 1.6 16.1 0.00 0.00 0.00 48 1013.3
20260506011748 21 257 4.8 16.1 0.00 0.00 0.00 49 1013.4
20260506011248 21 311 6.4 16.1 0.00 0.00 0.00 48 1013.4
20260506010747 21 317 6.4 11.3 0.00 0.00 0.00 48 1013.3
20260506010248 21 269 11.3 19.3 0.00 0.00 0.00 47 1013.3
20260506005748 21 314 6.4 19.3 0.00 0.00 0.00 47 1013.3
20260506005248 22 303 0.0 19.3 0.00 0.00 0.00 46 1013.3
20260506004247 22 307 17.7 22.5 0.00 0.00 0.00 45 1013.3
20260506003747 22 360 1.6 20.9 0.00 0.00 0.00 44 1013.2
20260506003247 22 311 1.6 20.9 0.00 0.00 0.00 44 1013.3
20260506002748 22 321 4.8 17.7 0.00 0.00 0.00 44 1013.3
20260506002247 22 296 11.3 17.7 0.00 0.00 0.00 44 1013.3
20260506001747 22 335 6.4 17.7 0.00 0.00 0.00 44 1013.3
20260506000747 23 328 8.0 17.7 0.00 0.00 0.00 43 1013.3
20260506000247 23 315 17.7 17.7 0.00 0.00 0.00 43 1013.3
20260505235246 23 318 9.7 16.1 0.00 0.00 0.00 43 1013.1
20260505234747 23 343 11.3 19.3 0.00 0.00 0.00 43 1013.0
20260505234247 23 17 4.8 19.3 0.00 0.00 0.00 43 1013.1
20260505233747 23 317 16.1 22.5 0.00 0.00 0.00 42 1013.1
20260505233246 23 288 4.8 22.5 0.00 0.00 0.00 42 1013.2
20260505232746 23 321 1.6 17.7 0.00 0.00 0.00 42 1013.2
20260505232246 23 331 8.0 22.5 0.00 0.00 0.00 42 1013.2
20260505231746 24 302 9.7 22.5 0.00 0.00 0.00 41 1013.2
20260505230246 24 303 8.0 24.1 0.00 0.00 0.00 41 1013.4
20260505225745 24 346 9.7 22.5 0.00 0.00 0.00 40 1013.3
20260505224746 23 325 12.9 20.9 0.00 0.00 0.00 41 1013.4
20260505224246 23 299 8.0 20.9 0.00 0.00 0.00 41 1013.3
20260505223745 23 309 11.3 20.9 0.00 0.00 0.00 41 1013.3
20260505223245 23 303 3.2 19.3 0.00 0.03 0.00 42 1013.4
20260505222745 23 309 4.8 22.5 0.00 0.03 0.00 42 1013.3
20260505222245 22 332 4.8 22.5 0.00 0.03 0.00 43 1013.3
20260505221245 21 318 6.4 17.7 0.00 0.03 0.00 44 1013.4
20260505220745 21 327 4.8 17.7 0.00 0.03 0.00 45 1013.4
20260505215745 21 302 1.6 30.6 0.00 0.03 0.00 46 1013.5
20260505214745 21 317 9.7 24.1 0.00 0.03 0.00 45 1013.6
20260505214245 20 301 22.5 22.5 0.00 0.03 0.00 46 1013.5
20260505213744 20 304 4.8 22.5 0.00 0.03 0.00 46 1013.6
20260505213245 20 302 14.5 22.5 0.00 0.03 0.00 46 1013.6
20260505212744 20 229 4.8 22.5 0.00 0.03 0.00 46 1013.6
20260505212244 20 304 8.0 22.5 0.00 0.03 0.00 46 1013.6
20260505211744 20 311 22.5 22.5 0.00 0.03 0.00 46 1013.6
20260505211244 20 318 4.8 29.0 0.00 0.03 0.00 46 1013.6
20260505210744 21 313 12.9 29.0 0.00 0.03 0.00 45 1013.5
20260505205244 21 249 9.7 19.3 0.00 0.03 0.00 45 1013.5
20260505204744 21 295 0.0 29.0 0.00 0.03 0.00 45 1013.5
20260505203744 22 325 8.0 24.1 0.00 0.03 0.00 44 1013.6
20260505202743 22 286 14.5 22.5 0.00 0.03 0.00 42 1013.6
20260505202244 22 185 8.0 22.5 0.00 0.03 0.00 42 1013.6
20260505201744 22 302 6.4 20.9 0.00 0.03 0.00 42 1013.6
20260505201243 22 286 0.0 29.0 0.00 0.03 0.00 43 1013.7
20260505200744 22 288 6.4 29.0 0.00 0.03 0.00 43 1013.8
20260505200243 22 312 4.8 14.5 0.00 0.03 0.00 43 1013.7
20260505195243 22 275 6.4 22.5 0.00 0.03 0.00 42 1013.7
20260505194243 21 291 20.9 25.7 0.00 0.03 0.00 43 1013.8
20260505193742 21 312 4.8 19.3 0.00 0.03 0.00 44 1013.9
20260505193244 20 306 14.5 22.5 0.00 0.03 0.00 44 1014.0
20260505192743 21 264 6.4 22.5 0.00 0.03 0.00 43 1014.0
20260505192243 21 292 11.3 22.5 0.00 0.03 0.00 43 1014.0
20260505191743 21 309 3.2 20.9 0.00 0.03 0.00 43 1013.9
20260505191243 21 11 6.4 19.3 0.00 0.03 0.00 43 1013.9